Powrót do katalogu

OPS 4682 DEB

AktywnyPO
NORAD 18271·DEBRIS·🇺🇸 United States

Wystrzelony Apr 3, 1965 z Vandenberg Space Force Base

Loading…

Następne Przeloty (najbliższe 24 godziny)

TLE

ŚwieżeSource: Space-Track

Epoka: Sep 14, 2026, 07:39 UTC

1 18271U 65027AA  26257.31892159  .00000787  00000-0  26732-2 0  9993
2 18271  90.2505   9.5101 0032163 238.2108 146.5538 12.97710907900955

Śledź OPS 4682 DEB w czasie rzeczywistym z AllMySat

Download on the App Store